VTK3034 UHMM-RKSI

Flight info

Callsign VTK3034
Flight time 4h 12m
Altitude 34000
Route N0470F340 BANOT A218 UNLUN L160 NA N222 LALET L731 NULAR L822 KANSU Y233 BUSKO Y437 LESBU B467 KAE Y697 BIKSI
Aircraft A321/M-SDE2E3FGHIJ1RWXY/L

Departure

Time 2026-04-18 00:01
Airport Sokol Airport (UHMM)

Arrival

Time 2026-04-18 04:13
Airport Incheon International Airport (RKSI)
Time Latitude Longitude Altitude Speed Heading
2026-04-17 23:39 59.91321 150.73479 583 ft 0 kts 181°
2026-04-17 23:59 59.91315 150.73479 582 ft 1 kts 181°
2026-04-17 23:59 59.91303 150.73475 582 ft 1 kts 198°
2026-04-17 23:59 59.91285 150.73434 582 ft 9 kts 230°
2026-04-18 00:00 59.91219 150.73259 583 ft 23 kts 232°
2026-04-18 00:00 59.91106 150.72936 585 ft 33 kts 246°
2026-04-18 00:00 59.91090 150.72399 581 ft 58 kts 272°
2026-04-18 00:00 59.91121 150.71141 586 ft 121 kts 274°
2026-04-18 00:01 59.91214 150.69119 620 ft 168 kts 276°
2026-04-18 00:01 59.91258 150.66821 1169 ft 169 kts 273°
2026-04-18 00:01 59.91318 150.64355 1421 ft 188 kts 274°
2026-04-18 00:01 59.91380 150.61635 1563 ft 205 kts 273°
2026-04-18 00:02 59.91448 150.58700 1706 ft 221 kts 273°
2026-04-18 00:02 59.91527 150.55505 1829 ft 241 kts 274°
2026-04-18 00:02 59.91616 150.52099 2173 ft 251 kts 276°
2026-04-18 00:02 59.91710 150.48585 2878 ft 257 kts 276°
2026-04-18 00:03 59.91659 150.45006 3669 ft 262 kts 261°
2026-04-18 00:03 59.91191 150.41472 4431 ft 268 kts 252°
2026-04-18 00:03 59.90554 150.38069 5203 ft 274 kts 249°
2026-04-18 00:03 59.89833 150.34536 5982 ft 277 kts 248°
2026-04-18 00:04 59.89105 150.30961 6747 ft 281 kts 249°
2026-04-18 00:04 59.88395 150.27346 7559 ft 281 kts 250°
2026-04-18 00:04 59.87706 150.23705 8325 ft 283 kts 252°
2026-04-18 00:04 59.87025 150.20013 9085 ft 286 kts 253°
2026-04-18 00:05 59.86351 150.16291 9876 ft 287 kts 253°
2026-04-18 00:05 59.85673 150.12505 10394 ft 300 kts 253°
2026-04-18 00:05 59.84955 150.08466 10540 ft 322 kts 253°
2026-04-18 00:05 59.84185 150.04147 10681 ft 343 kts 253°
2026-04-18 00:06 59.83365 149.99570 10805 ft 362 kts 252°
2026-04-18 00:06 59.82496 149.94735 10958 ft 381 kts 252°
2026-04-18 00:06 59.81587 149.89704 11342 ft 391 kts 252°
2026-04-18 00:06 59.80658 149.84600 11912 ft 396 kts 252°
2026-04-18 00:07 59.79712 149.79442 12496 ft 400 kts 252°
2026-04-18 00:07 59.78756 149.74236 13085 ft 404 kts 252°
2026-04-18 00:07 59.77793 149.68994 13755 ft 407 kts 251°
2026-04-18 00:07 59.76822 149.63709 14300 ft 410 kts 252°
2026-04-18 00:08 59.75843 149.58380 14849 ft 413 kts 252°
2026-04-18 00:08 59.74858 149.53021 15373 ft 416 kts 252°
2026-04-18 00:08 59.73862 149.47624 15898 ft 419 kts 252°
2026-04-18 00:08 59.72853 149.42185 16392 ft 422 kts 252°
2026-04-18 00:09 59.71834 149.36719 16895 ft 425 kts 252°
2026-04-18 00:09 59.70800 149.31211 17381 ft 428 kts 252°
2026-04-18 00:09 59.69760 149.25674 17862 ft 431 kts 252°
2026-04-18 00:09 59.68580 149.20208 18323 ft 437 kts 245°
2026-04-18 00:10 59.66977 149.15069 18711 ft 442 kts 236°
2026-04-18 00:10 59.64976 149.10428 19078 ft 448 kts 226°
2026-04-18 00:10 59.62623 149.06357 19462 ft 453 kts 221°
2026-04-18 00:10 59.60187 149.02396 19872 ft 455 kts 221°
2026-04-18 00:11 59.57744 148.98422 20278 ft 458 kts 221°
2026-04-18 00:11 59.55284 148.94415 20672 ft 461 kts 221°
2026-04-18 00:11 59.52810 148.90391 21055 ft 464 kts 221°
2026-04-18 00:11 59.50317 148.86347 21437 ft 466 kts 221°
2026-04-18 00:12 59.47812 148.82286 21807 ft 469 kts 221°
2026-04-18 00:12 59.45292 148.78219 22161 ft 472 kts 221°
2026-04-18 00:12 59.42751 148.74120 22513 ft 474 kts 221°
2026-04-18 00:12 59.40204 148.70014 22862 ft 476 kts 221°
2026-04-18 00:13 59.37637 148.65891 23233 ft 479 kts 221°
2026-04-18 00:13 59.35055 148.61765 23594 ft 481 kts 220°
2026-04-18 00:13 59.32457 148.57628 23976 ft 482 kts 220°
2026-04-18 00:13 59.29870 148.53508 24417 ft 481 kts 220°
2026-04-18 00:14 59.27286 148.49397 24885 ft 479 kts 220°
2026-04-18 00:14 59.24709 148.45304 25351 ft 477 kts 220°
2026-04-18 00:14 59.22147 148.41237 25781 ft 476 kts 220°
2026-04-18 00:14 59.19582 148.37171 26223 ft 475 kts 220°
2026-04-18 00:15 59.17027 148.33128 26634 ft 474 kts 220°
2026-04-18 00:15 59.14476 148.29099 27058 ft 472 kts 220°
2026-04-18 00:15 59.11930 148.25090 27489 ft 471 kts 220°
2026-04-18 00:15 59.09384 148.21093 27913 ft 470 kts 220°
2026-04-18 00:16 59.06844 148.17110 28334 ft 469 kts 220°
2026-04-18 00:16 59.04313 148.13153 28758 ft 468 kts 220°
2026-04-18 00:16 59.01781 148.09204 29176 ft 467 kts 220°
2026-04-18 00:16 58.99253 148.05272 29586 ft 466 kts 220°
2026-04-18 00:17 58.96728 148.01347 29989 ft 465 kts 220°
2026-04-18 00:17 58.94214 147.97433 30362 ft 465 kts 220°
2026-04-18 00:17 58.91699 147.93529 30650 ft 464 kts 220°
2026-04-18 00:17 58.89188 147.89641 30968 ft 463 kts 220°
2026-04-18 00:18 58.86679 147.85769 31273 ft 462 kts 220°
2026-04-18 00:18 58.84172 147.81912 31557 ft 462 kts 220°
2026-04-18 00:18 58.81661 147.78062 31834 ft 462 kts 220°
2026-04-18 00:18 58.79150 147.74216 32105 ft 461 kts 220°
2026-04-18 00:19 58.76643 147.70379 32375 ft 461 kts 220°
2026-04-18 00:19 58.74136 147.66553 32638 ft 461 kts 220°
2026-04-18 00:19 58.71631 147.62728 32894 ft 461 kts 220°
2026-04-18 00:19 58.69128 147.58905 33157 ft 460 kts 220°
2026-04-18 00:20 58.66624 147.55092 33421 ft 460 kts 220°
2026-04-18 00:20 58.64123 147.51297 33668 ft 459 kts 220°
2026-04-18 00:20 58.61621 147.47504 33905 ft 459 kts 220°
2026-04-18 00:20 58.59122 147.43722 34118 ft 459 kts 220°
2026-04-18 00:21 58.56606 147.39931 34176 ft 463 kts 219°
2026-04-18 00:21 58.51527 147.32321 34174 ft 466 kts 219°
2026-04-18 00:22 58.46432 147.24691 34171 ft 466 kts 219°
2026-04-18 00:22 58.41330 147.17073 34165 ft 466 kts 219°
2026-04-18 00:23 58.36232 147.09493 34168 ft 466 kts 219°
2026-04-18 00:23 58.31128 147.01940 34174 ft 466 kts 219°
2026-04-18 00:24 58.26019 146.94387 34176 ft 466 kts 219°
2026-04-18 00:24 58.20895 146.86867 34176 ft 467 kts 219°
2026-04-18 00:25 58.15758 146.79366 34171 ft 467 kts 219°
2026-04-18 00:25 58.10628 146.71864 34180 ft 467 kts 219°
2026-04-18 00:26 58.05491 146.64389 34182 ft 467 kts 219°
2026-04-18 00:26 58.00353 146.56947 34187 ft 466 kts 219°
2026-04-18 00:27 57.95212 146.49535 34188 ft 466 kts 219°
2026-04-18 00:27 57.90066 146.42158 34176 ft 466 kts 219°
2026-04-18 00:28 57.84922 146.34801 34182 ft 466 kts 219°
2026-04-18 00:28 57.79781 146.27451 34178 ft 465 kts 218°
2026-04-18 00:29 57.74639 146.20132 34179 ft 465 kts 219°
2026-04-18 00:29 57.69491 146.12834 34178 ft 465 kts 218°
2026-04-18 00:30 57.64340 146.05567 34170 ft 465 kts 218°
2026-04-18 00:30 57.59183 145.98335 34178 ft 464 kts 218°
2026-04-18 00:31 57.54035 145.91127 34178 ft 464 kts 218°
2026-04-18 00:31 57.48889 145.83926 34175 ft 464 kts 218°
2026-04-18 00:32 57.43731 145.76767 34174 ft 463 kts 218°
2026-04-18 00:32 57.38581 145.69626 34165 ft 463 kts 218°
2026-04-18 00:33 57.33435 145.62504 34172 ft 462 kts 218°
2026-04-18 00:33 57.28285 145.55417 34171 ft 462 kts 218°
2026-04-18 00:34 57.23130 145.48359 34168 ft 462 kts 218°
2026-04-18 00:34 57.17979 145.41324 34167 ft 462 kts 218°
2026-04-18 00:35 57.12826 145.34314 34163 ft 461 kts 218°
2026-04-18 00:35 57.07674 145.27330 34171 ft 461 kts 218°
2026-04-18 00:36 57.02523 145.20358 34169 ft 461 kts 218°
2026-04-18 00:36 56.97371 145.13424 34166 ft 460 kts 218°
2026-04-18 00:37 56.92225 145.06504 34170 ft 460 kts 218°
2026-04-18 00:37 56.87072 144.99626 34166 ft 459 kts 218°
2026-04-18 00:38 56.81922 144.92778 34167 ft 458 kts 218°
2026-04-18 00:38 56.76782 144.85936 34168 ft 458 kts 218°
2026-04-18 00:39 56.71647 144.79116 34164 ft 458 kts 218°
2026-04-18 00:39 56.66502 144.72329 34159 ft 457 kts 217°
2026-04-18 00:40 56.61353 144.65583 34160 ft 457 kts 217°
2026-04-18 00:40 56.56203 144.58840 34154 ft 457 kts 217°
2026-04-18 00:41 56.51053 144.52112 34156 ft 457 kts 217°
2026-04-18 00:41 56.45903 144.45410 34156 ft 457 kts 217°
2026-04-18 00:42 56.40747 144.38724 34141 ft 457 kts 217°
2026-04-18 00:42 56.35596 144.32065 34149 ft 456 kts 217°
2026-04-18 00:43 56.30436 144.25426 34147 ft 456 kts 217°
2026-04-18 00:43 56.25269 144.18852 34148 ft 456 kts 217°
2026-04-18 00:44 56.20065 144.12369 34142 ft 456 kts 216°
2026-04-18 00:44 56.14860 144.05908 34140 ft 456 kts 216°
2026-04-18 00:45 56.09649 143.99457 34137 ft 456 kts 216°
2026-04-18 00:45 56.04441 143.93020 34137 ft 456 kts 216°
2026-04-18 00:46 55.99233 143.86587 34135 ft 456 kts 216°
2026-04-18 00:46 55.94026 143.80172 34137 ft 456 kts 216°
2026-04-18 00:47 55.88813 143.73783 34122 ft 456 kts 216°
2026-04-18 00:47 55.83599 143.67425 34119 ft 455 kts 217°
2026-04-18 00:48 55.78382 143.61087 34121 ft 455 kts 217°
2026-04-18 00:48 55.73173 143.54766 34127 ft 454 kts 217°
2026-04-18 00:49 55.65363 143.45321 34113 ft 454 kts 216°
2026-04-18 00:49 55.60155 143.39061 34110 ft 454 kts 216°
2026-04-18 00:50 55.54938 143.32805 34114 ft 453 kts 216°
2026-04-18 00:50 55.49729 143.26578 34111 ft 453 kts 216°
2026-04-18 00:51 55.44510 143.20372 34114 ft 453 kts 216°
2026-04-18 00:51 55.39296 143.14182 34100 ft 453 kts 216°
2026-04-18 00:52 55.34082 143.08007 34102 ft 453 kts 216°
2026-04-18 00:52 55.28871 143.01847 34087 ft 452 kts 216°
2026-04-18 00:53 55.23656 142.95718 34097 ft 452 kts 216°
2026-04-18 00:53 55.18444 142.89640 34096 ft 451 kts 216°
2026-04-18 00:54 55.13214 142.83618 34090 ft 451 kts 216°
2026-04-18 00:54 55.07983 142.77636 34090 ft 450 kts 216°
2026-04-18 00:55 55.02760 142.71664 34090 ft 450 kts 216°
2026-04-18 00:55 54.97544 142.65701 34082 ft 449 kts 216°
2026-04-18 00:56 54.92319 142.59763 34078 ft 449 kts 215°
2026-04-18 00:56 54.87095 142.53832 34071 ft 449 kts 215°
2026-04-18 00:57 54.81871 142.47935 34067 ft 449 kts 215°
2026-04-18 00:57 54.76642 142.42049 34066 ft 449 kts 215°
2026-04-18 00:58 54.71416 142.36168 34057 ft 449 kts 216°
2026-04-18 00:58 54.66192 142.30316 34053 ft 448 kts 216°
2026-04-18 00:59 54.60969 142.24497 34061 ft 447 kts 216°
2026-04-18 00:59 54.55756 142.18705 34063 ft 446 kts 216°
2026-04-18 01:00 54.50548 142.12929 34061 ft 446 kts 216°
2026-04-18 01:00 54.45342 142.07170 34061 ft 446 kts 216°
2026-04-18 01:01 54.40119 142.01412 34059 ft 451 kts 216°
2026-04-18 01:01 54.34837 141.95602 34077 ft 451 kts 216°
2026-04-18 01:02 54.29567 141.89830 34070 ft 449 kts 215°
2026-04-18 01:02 54.24326 141.84115 34067 ft 447 kts 215°
2026-04-18 01:03 54.19097 141.78426 34054 ft 446 kts 216°
2026-04-18 01:03 54.13878 141.72762 34046 ft 445 kts 216°
2026-04-18 01:04 54.08662 141.67125 34047 ft 445 kts 215°
2026-04-18 01:04 54.03445 141.61497 34049 ft 445 kts 215°
2026-04-18 01:05 53.98222 141.55879 34046 ft 445 kts 215°
2026-04-18 01:05 53.93001 141.50276 34040 ft 445 kts 216°
2026-04-18 01:06 53.87780 141.44689 34041 ft 445 kts 215°
2026-04-18 01:06 53.82550 141.39113 34042 ft 445 kts 215°
2026-04-18 01:07 53.77318 141.33548 34043 ft 445 kts 215°
2026-04-18 01:07 53.72080 141.27999 34044 ft 445 kts 215°
2026-04-18 01:08 53.66843 141.22471 34027 ft 445 kts 215°
2026-04-18 01:08 53.61602 141.16952 34038 ft 445 kts 215°
2026-04-18 01:09 53.56365 141.11446 34043 ft 445 kts 215°
2026-04-18 01:09 53.51121 141.05960 34045 ft 445 kts 215°
2026-04-18 01:10 53.45881 141.00489 34046 ft 445 kts 215°
2026-04-18 01:10 53.40635 140.95028 34044 ft 444 kts 215°
2026-04-18 01:11 53.35395 140.89601 34058 ft 444 kts 215°
2026-04-18 01:11 53.30156 140.84180 34046 ft 443 kts 215°
2026-04-18 01:12 53.24919 140.78769 34039 ft 443 kts 215°
2026-04-18 01:12 53.19686 140.73386 34033 ft 443 kts 215°
2026-04-18 01:13 53.14494 140.67905 34027 ft 440 kts 220°
2026-04-18 01:13 53.09607 140.61804 34020 ft 440 kts 220°
2026-04-18 01:14 53.04722 140.55724 34016 ft 439 kts 220°
2026-04-18 01:14 52.99839 140.49670 34025 ft 439 kts 220°
2026-04-18 01:15 52.94951 140.43630 34004 ft 439 kts 220°
2026-04-18 01:15 52.90067 140.37610 34000 ft 438 kts 220°
2026-04-18 01:16 52.85182 140.31610 33996 ft 438 kts 220°
2026-04-18 01:16 52.80296 140.25621 33995 ft 438 kts 220°
2026-04-18 01:17 52.75407 140.19647 33988 ft 438 kts 219°
2026-04-18 01:17 52.70513 140.13686 33987 ft 438 kts 219°
2026-04-18 01:18 52.65613 140.07742 33989 ft 438 kts 219°
2026-04-18 01:18 52.60680 140.01853 33978 ft 439 kts 218°
2026-04-18 01:19 52.55644 139.96190 33983 ft 440 kts 217°
2026-04-18 01:19 52.50570 139.90603 33953 ft 440 kts 217°
2026-04-18 01:20 52.45523 139.84998 33976 ft 439 kts 217°
2026-04-18 01:20 52.40491 139.79375 33980 ft 438 kts 217°
2026-04-18 01:21 52.35469 139.73763 33978 ft 438 kts 217°
2026-04-18 01:21 52.30440 139.68172 33969 ft 438 kts 217°
2026-04-18 01:22 52.25413 139.62613 33962 ft 437 kts 217°
2026-04-18 01:22 52.20385 139.57072 33964 ft 437 kts 217°
2026-04-18 01:23 52.15354 139.51549 33963 ft 437 kts 217°
2026-04-18 01:23 52.10328 139.46029 33962 ft 437 kts 217°
2026-04-18 01:24 52.05297 139.40526 33945 ft 437 kts 217°
2026-04-18 01:24 52.00256 139.35027 33949 ft 437 kts 217°
2026-04-18 01:25 51.95216 139.29538 33946 ft 437 kts 217°
2026-04-18 01:25 51.90175 139.24068 33945 ft 437 kts 217°
2026-04-18 01:26 51.85130 139.18602 33928 ft 437 kts 217°
2026-04-18 01:26 51.80080 139.13156 33921 ft 438 kts 216°
2026-04-18 01:27 51.75020 139.07720 33930 ft 438 kts 216°
2026-04-18 01:27 51.69959 139.02289 33926 ft 438 kts 216°
2026-04-18 01:28 51.64898 138.96866 33925 ft 438 kts 216°
2026-04-18 01:28 51.59830 138.91454 33908 ft 438 kts 216°
2026-04-18 01:29 51.54755 138.86058 33907 ft 438 kts 216°
2026-04-18 01:29 51.49673 138.80665 33902 ft 439 kts 216°
2026-04-18 01:30 51.44592 138.75284 33890 ft 439 kts 216°
2026-04-18 01:30 51.39507 138.69920 33894 ft 439 kts 216°
2026-04-18 01:31 51.34421 138.64561 33872 ft 439 kts 216°
2026-04-18 01:31 51.29327 138.59212 33881 ft 439 kts 216°
2026-04-18 01:32 51.24228 138.53874 33884 ft 439 kts 216°
2026-04-18 01:32 51.19127 138.48548 33891 ft 439 kts 216°
2026-04-18 01:33 51.14022 138.43231 33868 ft 440 kts 216°
2026-04-18 01:33 51.08903 138.37919 33857 ft 440 kts 216°
2026-04-18 01:34 51.03779 138.32607 33857 ft 441 kts 216°
2026-04-18 01:34 50.98650 138.27316 33845 ft 441 kts 216°
2026-04-18 01:35 50.93522 138.22028 33842 ft 441 kts 216°
2026-04-18 01:35 50.88599 138.16309 33831 ft 439 kts 220°
2026-04-18 01:36 50.83789 138.10373 33830 ft 439 kts 220°
2026-04-18 01:36 50.78964 138.04442 33815 ft 442 kts 220°
2026-04-18 01:37 50.74108 137.98493 33826 ft 442 kts 220°
2026-04-18 01:37 50.69259 137.92559 33828 ft 442 kts 220°
2026-04-18 01:38 50.64415 137.86640 33821 ft 442 kts 220°
2026-04-18 01:38 50.59563 137.80727 33820 ft 442 kts 220°
2026-04-18 01:39 50.54708 137.74837 33818 ft 442 kts 220°
2026-04-18 01:39 50.49853 137.68955 33814 ft 442 kts 220°
2026-04-18 01:40 50.44989 137.63079 33814 ft 442 kts 220°
2026-04-18 01:40 50.40115 137.57211 33815 ft 443 kts 220°
2026-04-18 01:41 50.35183 137.51473 33810 ft 443 kts 217°
2026-04-18 01:41 50.30092 137.46045 33800 ft 444 kts 216°
2026-04-18 01:42 50.24970 137.40677 33802 ft 444 kts 217°
2026-04-18 01:42 50.19877 137.35253 33804 ft 444 kts 217°
2026-04-18 01:43 50.14808 137.29802 33775 ft 444 kts 217°
2026-04-18 01:43 50.09649 137.24554 33774 ft 446 kts 210°
2026-04-18 01:44 50.03781 137.21337 33783 ft 451 kts 198°
2026-04-18 01:44 49.97744 137.18765 33776 ft 451 kts 198°
2026-04-18 01:45 49.91701 137.16165 33777 ft 452 kts 199°
2026-04-18 01:45 49.85649 137.13572 33772 ft 452 kts 199°
2026-04-18 01:46 49.79596 137.11006 33770 ft 452 kts 198°
2026-04-18 01:46 49.73536 137.08441 33757 ft 452 kts 198°
2026-04-18 01:47 49.67485 137.05867 33759 ft 452 kts 199°
2026-04-18 01:47 49.61431 137.03293 33761 ft 452 kts 198°
2026-04-18 01:48 49.55385 137.00736 33754 ft 452 kts 198°
2026-04-18 01:48 49.49329 136.98187 33750 ft 452 kts 198°
2026-04-18 01:49 49.43276 136.95636 33755 ft 452 kts 198°
2026-04-18 01:49 49.37220 136.93094 33735 ft 453 kts 198°
2026-04-18 01:50 49.31155 136.90566 33747 ft 452 kts 198°
2026-04-18 01:50 49.25094 136.88045 33754 ft 452 kts 198°
2026-04-18 01:51 49.19038 136.85525 33743 ft 452 kts 198°
2026-04-18 01:51 49.12979 136.83015 33745 ft 452 kts 198°
2026-04-18 01:52 49.06923 136.80509 33735 ft 452 kts 198°
2026-04-18 01:52 49.00875 136.77992 33735 ft 452 kts 199°
2026-04-18 01:53 48.94848 136.75360 33730 ft 451 kts 199°
2026-04-18 01:54 48.85841 136.71393 33717 ft 450 kts 199°
2026-04-18 01:54 48.79832 136.68790 33714 ft 450 kts 199°
2026-04-18 01:55 48.73823 136.66194 33704 ft 450 kts 199°
2026-04-18 01:55 48.67814 136.63594 33709 ft 450 kts 199°
2026-04-18 01:56 48.61804 136.61004 33687 ft 450 kts 199°
2026-04-18 01:56 48.55800 136.58422 33705 ft 450 kts 199°
2026-04-18 01:57 48.49795 136.55842 33715 ft 449 kts 199°
2026-04-18 01:57 48.43790 136.53263 33703 ft 449 kts 199°
2026-04-18 01:58 48.37782 136.50708 33705 ft 450 kts 199°
2026-04-18 01:58 48.31776 136.48163 33716 ft 450 kts 199°
2026-04-18 01:59 48.25762 136.45613 33689 ft 450 kts 199°
2026-04-18 01:59 48.19745 136.43067 33701 ft 450 kts 199°
2026-04-18 02:00 48.13730 136.40527 33703 ft 450 kts 199°
2026-04-18 02:00 48.07711 136.37985 33711 ft 450 kts 199°
2026-04-18 02:01 48.01694 136.35449 33707 ft 451 kts 199°
2026-04-18 02:01 47.95653 136.32927 33706 ft 452 kts 199°
2026-04-18 02:02 47.89614 136.30393 33694 ft 452 kts 199°
2026-04-18 02:02 47.83570 136.27863 33706 ft 452 kts 199°
2026-04-18 02:03 47.77524 136.25347 33704 ft 452 kts 199°
2026-04-18 02:03 47.71474 136.22830 33702 ft 452 kts 199°
2026-04-18 02:04 47.65424 136.20321 33706 ft 453 kts 199°
2026-04-18 02:04 47.59366 136.17813 33707 ft 453 kts 199°
2026-04-18 02:05 47.53313 136.15322 33696 ft 453 kts 199°
2026-04-18 02:05 47.47255 136.12826 33698 ft 453 kts 199°
2026-04-18 02:06 47.41195 136.10328 33702 ft 453 kts 199°
2026-04-18 02:06 47.35124 136.07850 33706 ft 453 kts 199°
2026-04-18 02:07 47.29056 136.05383 33691 ft 454 kts 199°
2026-04-18 02:07 47.22952 136.03008 33689 ft 455 kts 197°
2026-04-18 02:08 47.16779 136.00938 33694 ft 456 kts 196°
2026-04-18 02:08 47.10595 135.98916 33711 ft 456 kts 196°
2026-04-18 02:09 47.04426 135.96853 33705 ft 456 kts 197°
2026-04-18 02:09 46.98262 135.94758 33707 ft 456 kts 197°
2026-04-18 02:10 46.92087 135.92649 33707 ft 457 kts 197°
2026-04-18 02:10 46.85907 135.90551 33716 ft 457 kts 197°
2026-04-18 02:11 46.79723 135.88465 33707 ft 457 kts 197°
2026-04-18 02:11 46.73538 135.86381 33714 ft 457 kts 197°
2026-04-18 02:12 46.67345 135.84297 33725 ft 458 kts 197°
2026-04-18 02:12 46.61148 135.82225 33733 ft 458 kts 197°
2026-04-18 02:13 46.54948 135.80167 33735 ft 458 kts 197°
2026-04-18 02:13 46.48746 135.78111 33735 ft 458 kts 197°
2026-04-18 02:14 46.42553 135.76051 33755 ft 457 kts 197°
2026-04-18 02:14 46.36365 135.73996 33745 ft 457 kts 197°
2026-04-18 02:15 46.30132 135.72224 33740 ft 459 kts 194°
2026-04-18 02:15 46.23824 135.70840 33731 ft 460 kts 193°
2026-04-18 02:16 46.17507 135.69471 33725 ft 460 kts 193°
2026-04-18 02:16 46.11200 135.68018 33742 ft 459 kts 194°
2026-04-18 02:17 46.04914 135.66512 33744 ft 459 kts 194°
2026-04-18 02:17 45.98618 135.65004 33742 ft 460 kts 194°
2026-04-18 02:18 45.92310 135.63526 33740 ft 460 kts 194°
2026-04-18 02:18 45.85999 135.62063 33732 ft 460 kts 194°
2026-04-18 02:19 45.79692 135.60591 33737 ft 460 kts 194°
2026-04-18 02:19 45.73395 135.59118 33739 ft 460 kts 194°
2026-04-18 02:20 45.67089 135.57663 33757 ft 460 kts 194°
2026-04-18 02:20 45.60787 135.56209 33762 ft 460 kts 194°
2026-04-18 02:21 45.54484 135.54753 33740 ft 460 kts 194°
2026-04-18 02:21 45.48175 135.53295 33749 ft 460 kts 194°
2026-04-18 02:22 45.41861 135.51840 33756 ft 461 kts 194°
2026-04-18 02:22 45.35545 135.50388 33768 ft 461 kts 194°
2026-04-18 02:23 45.29227 135.48939 33756 ft 461 kts 195°
2026-04-18 02:23 45.22902 135.47496 33744 ft 461 kts 195°
2026-04-18 02:24 45.16579 135.46068 33775 ft 461 kts 195°
2026-04-18 02:24 45.10257 135.44631 33789 ft 461 kts 195°
2026-04-18 02:25 45.03941 135.43185 33775 ft 461 kts 195°
2026-04-18 02:25 44.97617 135.41751 33787 ft 461 kts 195°
2026-04-18 02:26 44.91292 135.40329 33797 ft 461 kts 195°
2026-04-18 02:26 44.84975 135.38907 33798 ft 461 kts 195°
2026-04-18 02:27 44.78698 135.37281 33783 ft 458 kts 199°
2026-04-18 02:27 44.72527 135.35169 33789 ft 457 kts 200°
2026-04-18 02:28 44.66381 135.32954 33788 ft 457 kts 200°
2026-04-18 02:28 44.60208 135.30853 33796 ft 458 kts 199°
2026-04-18 02:29 44.54016 135.28831 33789 ft 458 kts 199°
2026-04-18 02:29 44.47813 135.26808 33796 ft 459 kts 199°
2026-04-18 02:30 44.41614 135.24774 33799 ft 459 kts 199°
2026-04-18 02:30 44.35418 135.22735 33776 ft 459 kts 200°
2026-04-18 02:31 44.29212 135.20691 33782 ft 459 kts 200°
2026-04-18 02:31 44.23002 135.18657 33793 ft 460 kts 200°
2026-04-18 02:32 44.16783 135.16633 33807 ft 460 kts 200°
2026-04-18 02:32 44.10554 135.14623 33806 ft 460 kts 200°
2026-04-18 02:33 44.04326 135.12606 33827 ft 460 kts 200°
2026-04-18 02:33 43.98102 135.10583 33809 ft 460 kts 200°
2026-04-18 02:34 43.91878 135.08568 33812 ft 460 kts 200°
2026-04-18 02:34 43.85653 135.06559 33798 ft 461 kts 200°
2026-04-18 02:35 43.79420 135.04553 33808 ft 461 kts 200°
2026-04-18 02:35 43.73180 135.02543 33804 ft 461 kts 200°
2026-04-18 02:36 43.66946 135.00547 33779 ft 461 kts 200°
2026-04-18 02:36 43.60723 134.98556 33805 ft 460 kts 200°
2026-04-18 02:37 43.54500 134.96562 33817 ft 460 kts 200°
2026-04-18 02:37 43.48278 134.94580 33818 ft 460 kts 200°
2026-04-18 02:38 43.42052 134.92611 33807 ft 460 kts 201°
2026-04-18 02:38 43.35820 134.90636 33816 ft 460 kts 201°
2026-04-18 02:39 43.29598 134.88664 33829 ft 459 kts 201°
2026-04-18 02:39 43.23385 134.86699 33794 ft 459 kts 201°
2026-04-18 02:40 43.17168 134.84733 33814 ft 460 kts 201°
2026-04-18 02:40 43.10941 134.82767 33830 ft 460 kts 201°
2026-04-18 02:41 43.04715 134.80809 33836 ft 460 kts 201°
2026-04-18 02:41 42.98489 134.78878 33832 ft 460 kts 201°
2026-04-18 02:42 42.92260 134.76938 33849 ft 460 kts 201°
2026-04-18 02:42 42.86040 134.74989 33851 ft 460 kts 201°
2026-04-18 02:43 42.79815 134.73047 33807 ft 460 kts 201°
2026-04-18 02:43 42.73592 134.71126 33852 ft 459 kts 201°
2026-04-18 02:44 42.67377 134.69201 33878 ft 459 kts 201°
2026-04-18 02:44 42.61175 134.67275 33883 ft 458 kts 201°
2026-04-18 02:45 42.54967 134.65353 33885 ft 459 kts 201°
2026-04-18 02:45 42.48752 134.63434 33872 ft 459 kts 201°
2026-04-18 02:46 42.42543 134.61516 33901 ft 458 kts 201°
2026-04-18 02:46 42.36334 134.59613 33877 ft 459 kts 201°
2026-04-18 02:47 42.30122 134.57704 33902 ft 459 kts 201°
2026-04-18 02:47 42.23903 134.55813 33919 ft 459 kts 201°
2026-04-18 02:48 42.17682 134.53925 33906 ft 459 kts 201°
2026-04-18 02:48 42.11470 134.52037 33927 ft 458 kts 202°
2026-04-18 02:49 42.05270 134.50149 33937 ft 458 kts 202°
2026-04-18 02:49 41.99075 134.48265 33943 ft 457 kts 202°
2026-04-18 02:50 41.92882 134.46385 33946 ft 457 kts 201°
2026-04-18 02:50 41.86701 134.44515 33946 ft 456 kts 201°
2026-04-18 02:51 41.80529 134.42659 33956 ft 455 kts 201°
2026-04-18 02:51 41.74371 134.40805 33934 ft 455 kts 201°
2026-04-18 02:52 41.68211 134.38950 33952 ft 454 kts 201°
2026-04-18 02:52 41.62055 134.37108 33938 ft 454 kts 201°
2026-04-18 02:53 41.55924 134.35281 33971 ft 452 kts 201°
2026-04-18 02:53 41.49800 134.33454 33969 ft 451 kts 201°
2026-04-18 02:54 41.43687 134.31632 33978 ft 451 kts 201°
2026-04-18 02:54 41.37578 134.29810 33985 ft 451 kts 201°
2026-04-18 02:55 41.31471 134.28000 33950 ft 451 kts 201°
2026-04-18 02:55 41.25367 134.26183 33970 ft 451 kts 201°
2026-04-18 02:56 41.19254 134.24381 33978 ft 451 kts 201°
2026-04-18 02:56 41.10083 134.21679 33973 ft 451 kts 201°
2026-04-18 02:57 41.03966 134.19876 33987 ft 451 kts 201°
2026-04-18 02:57 40.98011 134.17655 34001 ft 438 kts 212°
2026-04-18 02:58 40.92713 134.13949 33988 ft 430 kts 217°
2026-04-18 02:58 40.87494 134.10107 34000 ft 430 kts 217°
2026-04-18 02:59 40.82273 134.06286 34009 ft 430 kts 217°
2026-04-18 02:59 40.77043 134.02475 33978 ft 430 kts 217°
2026-04-18 03:00 40.71825 133.98661 33992 ft 430 kts 217°
2026-04-18 03:00 40.66602 133.94856 34017 ft 429 kts 217°
2026-04-18 03:01 40.61386 133.91065 34002 ft 429 kts 217°
2026-04-18 03:01 40.56176 133.87275 34010 ft 429 kts 217°
2026-04-18 03:02 40.50960 133.83494 34017 ft 429 kts 217°
2026-04-18 03:02 40.45743 133.79721 34025 ft 429 kts 217°
2026-04-18 03:03 40.40523 133.75960 34005 ft 429 kts 217°
2026-04-18 03:03 40.35308 133.72204 34007 ft 429 kts 217°
2026-04-18 03:04 40.30097 133.68446 34027 ft 428 kts 217°
2026-04-18 03:04 40.24895 133.64706 34028 ft 427 kts 217°
2026-04-18 03:05 40.19686 133.60981 34034 ft 427 kts 217°
2026-04-18 03:05 40.14491 133.57260 34037 ft 427 kts 217°
2026-04-18 03:06 40.09288 133.53548 34035 ft 427 kts 217°
2026-04-18 03:06 40.04093 133.49839 34036 ft 426 kts 217°
2026-04-18 03:07 39.98901 133.46134 34022 ft 426 kts 217°
2026-04-18 03:07 39.93716 133.42435 34024 ft 424 kts 216°
2026-04-18 03:08 39.88552 133.38769 34044 ft 423 kts 216°
2026-04-18 03:08 39.83404 133.35135 34048 ft 421 kts 216°
2026-04-18 03:09 39.78270 133.31507 34034 ft 420 kts 216°
2026-04-18 03:09 39.73146 133.27901 34062 ft 419 kts 216°
2026-04-18 03:10 39.68031 133.24297 34052 ft 418 kts 216°
2026-04-18 03:10 39.62929 133.20701 34016 ft 418 kts 216°
2026-04-18 03:11 39.57823 133.17122 34025 ft 418 kts 217°
2026-04-18 03:11 39.52719 133.13536 34030 ft 418 kts 217°
2026-04-18 03:12 39.47613 133.09947 34039 ft 418 kts 217°
2026-04-18 03:12 39.42501 133.06374 34025 ft 419 kts 217°
2026-04-18 03:13 39.37380 133.02810 34028 ft 419 kts 217°
2026-04-18 03:13 39.32256 132.99240 34037 ft 419 kts 217°
2026-04-18 03:14 39.27237 132.95492 34017 ft 417 kts 219°
2026-04-18 03:14 39.22277 132.91662 34040 ft 416 kts 219°
2026-04-18 03:15 39.17310 132.87851 34049 ft 416 kts 219°
2026-04-18 03:15 39.12322 132.84095 34047 ft 416 kts 218°
2026-04-18 03:16 39.07335 132.80357 34055 ft 415 kts 218°
2026-04-18 03:16 39.02356 132.76623 34061 ft 415 kts 218°
2026-04-18 03:17 38.97387 132.72888 34054 ft 414 kts 218°
2026-04-18 03:17 38.92431 132.69163 34067 ft 414 kts 218°
2026-04-18 03:18 38.87471 132.65446 34072 ft 413 kts 219°
2026-04-18 03:18 38.82519 132.61749 34062 ft 412 kts 219°
2026-04-18 03:19 38.77569 132.58067 34064 ft 412 kts 219°
2026-04-18 03:19 38.72617 132.54395 34071 ft 412 kts 219°
2026-04-18 03:20 38.67674 132.50721 34046 ft 412 kts 219°
2026-04-18 03:20 38.63336 132.46255 34053 ft 394 kts 235°
2026-04-18 03:21 38.60399 132.40500 34060 ft 386 kts 246°
2026-04-18 03:21 38.57864 132.34470 34066 ft 386 kts 246°
2026-04-18 03:22 38.55324 132.28443 34070 ft 386 kts 246°
2026-04-18 03:22 38.52784 132.22415 34072 ft 386 kts 246°
2026-04-18 03:23 38.50236 132.16385 34079 ft 386 kts 246°
2026-04-18 03:23 38.47688 132.10359 34060 ft 387 kts 246°
2026-04-18 03:24 38.45136 132.04332 34067 ft 387 kts 246°
2026-04-18 03:24 38.42567 131.98308 34073 ft 388 kts 245°
2026-04-18 03:25 38.39993 131.92282 34077 ft 388 kts 246°
2026-04-18 03:25 38.37421 131.86257 34055 ft 388 kts 245°
2026-04-18 03:26 38.34841 131.80230 34058 ft 388 kts 245°
2026-04-18 03:26 38.32253 131.74200 34064 ft 389 kts 245°
2026-04-18 03:27 38.29662 131.68173 34069 ft 389 kts 245°
2026-04-18 03:27 38.27067 131.62148 34054 ft 389 kts 245°
2026-04-18 03:28 38.24467 131.56116 34063 ft 389 kts 245°
2026-04-18 03:28 38.21869 131.50091 34077 ft 390 kts 245°
2026-04-18 03:29 38.19259 131.44060 34082 ft 390 kts 245°
2026-04-18 03:29 38.16646 131.38042 34069 ft 390 kts 245°
2026-04-18 03:30 38.14029 131.32012 34076 ft 393 kts 245°
2026-04-18 03:30 38.11358 131.25877 34077 ft 403 kts 244°
2026-04-18 03:31 38.08653 131.19692 34043 ft 394 kts 244°
2026-04-18 03:31 38.06018 131.13670 34065 ft 390 kts 244°
2026-04-18 03:32 38.03393 131.07673 34374 ft 389 kts 245°
2026-04-18 03:32 38.02081 131.04676 34597 ft 389 kts 244°
2026-04-18 03:32 38.00773 131.01685 34871 ft 388 kts 244°
2026-04-18 03:33 37.99468 130.98710 35148 ft 386 kts 244°
2026-04-18 03:33 37.98163 130.95753 35398 ft 385 kts 244°
2026-04-18 03:33 37.96859 130.92797 35651 ft 384 kts 244°
2026-04-18 03:33 37.95561 130.89854 35920 ft 383 kts 244°
2026-04-18 03:34 37.94262 130.86914 36050 ft 383 kts 244°
2026-04-18 03:34 37.92965 130.83974 36065 ft 382 kts 244°
2026-04-18 03:34 37.90379 130.78110 36065 ft 382 kts 244°
2026-04-18 03:35 37.87792 130.72249 36067 ft 382 kts 244°
2026-04-18 03:35 37.85200 130.66406 36064 ft 382 kts 244°
2026-04-18 03:36 37.82607 130.60565 36065 ft 382 kts 244°
2026-04-18 03:36 37.80006 130.54725 36069 ft 382 kts 244°
2026-04-18 03:37 37.77403 130.48880 36068 ft 382 kts 244°
2026-04-18 03:37 37.74797 130.43036 36078 ft 382 kts 244°
2026-04-18 03:38 37.72190 130.37199 36081 ft 382 kts 244°
2026-04-18 03:38 37.69577 130.31370 36074 ft 382 kts 244°
2026-04-18 03:39 37.67840 130.25131 36075 ft 378 kts 262°
2026-04-18 03:39 37.67788 130.18504 36078 ft 380 kts 269°
2026-04-18 03:40 37.67940 130.11849 36081 ft 380 kts 269°
2026-04-18 03:40 37.68076 130.05193 36091 ft 380 kts 269°
2026-04-18 03:41 37.68213 129.98529 36084 ft 381 kts 269°
2026-04-18 03:41 37.68341 129.91852 36075 ft 382 kts 269°
2026-04-18 03:42 37.68467 129.85168 36079 ft 382 kts 269°
2026-04-18 03:42 37.68596 129.78474 36076 ft 382 kts 269°
2026-04-18 03:43 37.68724 129.71784 36075 ft 382 kts 269°
2026-04-18 03:43 37.68846 129.65084 36079 ft 383 kts 269°
2026-04-18 03:44 37.68966 129.58371 36072 ft 383 kts 269°
2026-04-18 03:44 37.69081 129.51656 36072 ft 384 kts 269°
2026-04-18 03:45 37.69186 129.44935 36072 ft 384 kts 269°
2026-04-18 03:45 37.69285 129.38205 36060 ft 384 kts 269°
2026-04-18 03:46 37.69383 129.31472 36073 ft 385 kts 269°
2026-04-18 03:46 37.69476 129.24726 36068 ft 385 kts 269°
2026-04-18 03:47 37.69569 129.17970 36065 ft 386 kts 269°
2026-04-18 03:47 37.69660 129.11205 36062 ft 386 kts 269°
2026-04-18 03:48 37.69747 129.04429 36059 ft 387 kts 269°
2026-04-18 03:48 37.69837 128.97639 36056 ft 388 kts 269°
2026-04-18 03:49 37.69920 128.90849 36026 ft 388 kts 268°
2026-04-18 03:49 37.69993 128.84044 36051 ft 388 kts 268°
2026-04-18 03:50 37.70052 128.77238 36057 ft 389 kts 268°
2026-04-18 03:50 37.69353 128.70515 36061 ft 387 kts 259°
2026-04-18 03:51 37.68358 128.63846 36075 ft 388 kts 259°
2026-04-18 03:51 37.67359 128.57162 36069 ft 388 kts 259°
2026-04-18 03:52 37.66352 128.50483 36045 ft 388 kts 258°
2026-04-18 03:52 37.65339 128.43799 36059 ft 389 kts 258°
2026-04-18 03:53 37.64320 128.37113 36066 ft 389 kts 258°
2026-04-18 03:53 37.63304 128.30420 36069 ft 389 kts 258°
2026-04-18 03:54 37.62272 128.23737 35925 ft 389 kts 258°
2026-04-18 03:54 37.61752 128.20402 35678 ft 388 kts 258°
2026-04-18 03:54 37.61236 128.17070 35426 ft 389 kts 258°
2026-04-18 03:55 37.60719 128.13725 35171 ft 389 kts 258°
2026-04-18 03:55 37.60201 128.10390 34781 ft 388 kts 258°
2026-04-18 03:55 37.59684 128.07062 34149 ft 389 kts 258°
2026-04-18 03:55 37.59163 128.03711 33386 ft 390 kts 258°
2026-04-18 03:56 37.58643 128.00365 32698 ft 390 kts 258°
2026-04-18 03:56 37.58121 127.97009 31959 ft 392 kts 259°
2026-04-18 03:56 37.57593 127.93633 31211 ft 395 kts 259°
2026-04-18 03:56 37.57058 127.90222 30418 ft 399 kts 259°
2026-04-18 03:57 37.55980 127.83327 28669 ft 404 kts 259°
2026-04-18 03:57 37.55435 127.79853 27820 ft 406 kts 260°
2026-04-18 03:57 37.54882 127.76353 26915 ft 411 kts 260°
2026-04-18 03:58 37.54319 127.72791 25949 ft 420 kts 260°
2026-04-18 03:58 37.53739 127.69143 24942 ft 431 kts 260°
2026-04-18 03:58 37.52899 127.65478 23958 ft 443 kts 251°
2026-04-18 03:58 37.51620 127.61911 22895 ft 450 kts 247°
2026-04-18 03:59 37.50277 127.58365 22034 ft 449 kts 247°
2026-04-18 03:59 37.48944 127.54822 21161 ft 449 kts 247°
2026-04-18 03:59 37.47614 127.51279 20275 ft 449 kts 246°
2026-04-18 03:59 37.46285 127.47738 19424 ft 448 kts 247°
2026-04-18 04:00 37.44956 127.44199 18567 ft 448 kts 247°
2026-04-18 04:00 37.43626 127.40661 17638 ft 447 kts 247°
2026-04-18 04:00 37.42300 127.37143 16787 ft 444 kts 247°
2026-04-18 04:00 37.40979 127.33650 15944 ft 442 kts 246°
2026-04-18 04:01 37.39665 127.30180 15126 ft 440 kts 246°
2026-04-18 04:01 37.38356 127.26721 14332 ft 438 kts 246°
2026-04-18 04:01 37.37059 127.23293 13549 ft 435 kts 246°
2026-04-18 04:01 37.35770 127.19886 12895 ft 429 kts 246°
2026-04-18 04:02 37.34494 127.16520 12253 ft 425 kts 246°
2026-04-18 04:02 37.33234 127.13207 11702 ft 418 kts 246°
2026-04-18 04:02 37.32003 127.09985 11526 ft 401 kts 246°
2026-04-18 04:02 37.30830 127.06923 11406 ft 380 kts 246°
2026-04-18 04:03 37.29711 127.04001 11267 ft 364 kts 246°
2026-04-18 04:03 37.28640 127.01204 11150 ft 348 kts 246°
2026-04-18 04:03 37.27620 126.98533 11025 ft 335 kts 246°
2026-04-18 04:03 37.26613 126.95970 10898 ft 323 kts 244°
2026-04-18 04:04 37.25565 126.93537 10745 ft 313 kts 242°
2026-04-18 04:04 37.24503 126.91185 10520 ft 307 kts 241°
2026-04-18 04:04 37.23455 126.88903 10395 ft 298 kts 241°
2026-04-18 04:04 37.22439 126.86686 10268 ft 290 kts 242°
2026-04-18 04:05 37.21458 126.84531 10143 ft 281 kts 242°
2026-04-18 04:05 37.20509 126.82435 9963 ft 272 kts 242°
2026-04-18 04:05 37.19581 126.80385 9322 ft 271 kts 242°
2026-04-18 04:05 37.18651 126.78325 8576 ft 274 kts 242°
2026-04-18 04:06 37.17725 126.76209 7988 ft 280 kts 248°
2026-04-18 04:06 37.17169 126.73870 7549 ft 282 kts 265°
2026-04-18 04:06 37.17172 126.71431 7146 ft 280 kts 282°
2026-04-18 04:06 37.17721 126.69124 6781 ft 276 kts 299°
2026-04-18 04:07 37.18749 126.67132 6436 ft 270 kts 315°
2026-04-18 04:07 37.20137 126.65578 5910 ft 272 kts 327°
2026-04-18 04:07 37.21710 126.64197 5382 ft 278 kts 328°
2026-04-18 04:07 37.23288 126.62822 4984 ft 271 kts 327°
2026-04-18 04:08 37.24787 126.61502 4643 ft 258 kts 326°
2026-04-18 04:08 37.26213 126.60238 4306 ft 244 kts 327°
2026-04-18 04:08 37.27585 126.59025 3994 ft 241 kts 326°
2026-04-18 04:08 37.28948 126.57820 3711 ft 237 kts 326°
2026-04-18 04:09 37.30283 126.56640 3374 ft 231 kts 326°
2026-04-18 04:09 37.31549 126.55519 3063 ft 215 kts 326°
2026-04-18 04:09 37.32726 126.54477 2808 ft 200 kts 326°
2026-04-18 04:09 37.33807 126.53519 2558 ft 182 kts 327°
2026-04-18 04:10 37.34798 126.52641 2317 ft 168 kts 327°
2026-04-18 04:10 37.35710 126.51832 2116 ft 153 kts 327°
2026-04-18 04:10 37.36540 126.51096 1906 ft 141 kts 328°
2026-04-18 04:10 37.37325 126.50401 1721 ft 137 kts 328°
2026-04-18 04:11 37.38098 126.49717 1532 ft 135 kts 327°
2026-04-18 04:11 37.38864 126.49037 1355 ft 135 kts 327°
2026-04-18 04:11 37.39626 126.48361 1179 ft 134 kts 326°
2026-04-18 04:11 37.40389 126.47684 997 ft 134 kts 326°
2026-04-18 04:12 37.41152 126.47007 815 ft 135 kts 325°
2026-04-18 04:12 37.41918 126.46326 650 ft 135 kts 324°
2026-04-18 04:12 37.42691 126.45641 475 ft 137 kts 324°
2026-04-18 04:12 37.43483 126.44960 308 ft 139 kts 324°
2026-04-18 04:13 37.44265 126.44257 110 ft 138 kts 322°
2026-04-18 04:13 37.45012 126.43572 32 ft 120 kts 322°
2026-04-18 04:13 37.45446 126.43182 33 ft 33 kts 324°
2026-04-18 04:13 37.45482 126.43149 33 ft 1 kts 324°
2026-04-18 04:14 37.45553 126.43085 33 ft 24 kts 324°
2026-04-18 04:14 37.45731 126.42998 33 ft 30 kts 30°
2026-04-18 04:14 37.45889 126.43157 33 ft 29 kts 43°
2026-04-18 04:14 37.46014 126.43360 33 ft 30 kts 54°
2026-04-18 04:15 37.46144 126.43409 33 ft 14 kts 347°
2026-04-18 04:15 37.46161 126.43405 33 ft 0 kts 350°